HST,Max TemperatureF,Mean TemperatureF,Min TemperatureF,Max Dew PointF,MeanDew PointF,Min DewpointF,Max Humidity, Mean Humidity, Min Humidity, Max Sea Level PressureIn, Mean Sea Level PressureIn, Min Sea Level PressureIn, Max VisibilityMiles, Mean VisibilityMiles, Min VisibilityMiles, Max Wind SpeedMPH, Mean Wind SpeedMPH, Max Gust SpeedMPH,PrecipitationIn, CloudCover, Events, WindDirDegrees
2013-10-1,86,82,78,71,67,61,69,62,49,29.98,29.95,29.91,10,10,10,17,7,,0.00,5,,146
2013-10-2,87,82,77,73,70,67,79,70,57,29.95,29.92,29.88,10,10,10,13,7,,0.00,4,,204
2013-10-3,84,81,78,72,71,70,79,73,67,29.96,29.93,29.88,10,10,10,13,6,,0.00,5,,226
2013-10-4,84,80,75,73,70,67,84,73,61,29.97,29.94,29.90,10,10,5,14,6,18,0.25,5,Rain,193
2013-10-5,84,78,73,71,68,64,84,71,58,29.98,29.94,29.89,10,10,10,13,6,18,0.00,5,,137
2013-10-6,84,78,73,72,69,64,83,72,57,29.98,29.94,29.90,10,10,10,12,4,,0.00,5,,175
2013-10-7,84,80,75,72,69,66,82,71,62,30.03,29.97,29.92,10,10,10,13,5,,0.00,2,,146
2013-10-8,84,78,73,71,66,61,76,65,56,30.04,30.00,29.96,10,10,10,13,8,18,0.00,2,,113
2013-10-9,84,78,72,71,68,62,76,68,56,30.01,29.97,29.92,10,10,10,13,5,,0.00,1,,161
2013-10-10,86,80,75,72,69,64,77,68,58,29.99,29.95,29.90,10,10,10,15,6,,0.00,1,Rain,184
2013-10-11,86,80,75,73,70,67,82,71,55,30.03,29.96,29.92,10,10,10,13,6,,0.00,1,,338
2013-10-12,84,78,73,73,71,65,82,75,65,30.01,29.98,29.93,10,10,10,13,6,,0.00,3,Rain,184
2013-10-13,84,80,75,74,72,69,89,78,65,29.99,29.95,29.90,10,10,10,13,5,,0.07,3,Rain,147
2013-10-14,84,80,75,71,69,66,79,72,63,29.97,29.93,29.87,10,10,10,13,6,,0.00,3,Rain,148
2013-10-15,84,78,73,71,68,62,79,66,56,29.97,29.93,29.87,10,10,10,14,5,,0.00,2,,194
2013-10-16,84,78,73,71,67,60,76,64,47,29.98,29.93,29.88,10,10,10,14,5,,0.00,1,,194
2013-10-17,84,80,75,71,69,65,79,68,53,29.98,29.95,29.91,10,10,10,14,7,,0.00,0,,5
2013-10-18,84,80,75,72,70,66,79,70,63,29.96,29.92,29.87,10,10,10,10,7,,0.00,0,,223
2013-10-19,84,78,73,72,69,64,78,70,60,29.92,29.88,29.84,10,10,10,10,5,,0.00,1,,168
2013-10-20,84,78,73,70,67,64,74,67,59,29.95,29.90,29.87,10,10,10,10,6,,0.00,1,,166
2013-10-21,87,81,75,68,66,63,76,63,48,29.98,29.92,29.87,10,10,10,14,9,,0.00,1,,359
2013-10-22,87,81,75,67,64,61,64,56,46,29.97,29.94,29.88,10,10,10,12,4,,0.00,2,,293
2013-10-23,84,78,73,70,66,61,74,64,57,29.99,29.95,29.91,10,10,10,14,6,,0.00,1,,153
2013-10-24,84,78,73,72,68,63,74,67,56,29.98,29.94,29.88,10,10,10,12,5,18,0.00,3,,197
2013-10-25,86,80,73,71,69,63,74,69,57,30.00,29.96,29.91,10,10,10,12,5,,0.00,3,,165
2013-10-26,84,80,75,72,70,68,79,70,63,30.03,29.99,29.94,10,10,10,10,6,,0.00,1,,317
2013-10-27,84,80,75,72,70,65,76,69,58,30.03,29.98,29.93,10,10,10,10,7,,0.00,1,,183
2013-10-28,84,80,75,72,70,65,77,69,56,30.02,29.97,29.90,10,10,10,14,5,16,0.00,1,,123
2013-10-29,84,78,73,70,65,59,90,65,47,30.05,30.00,29.94,10,10,5,16,7,20,0.07,3,Rain,134
2013-10-30,84,77,70,68,66,64,82,67,56,30.07,30.02,29.98,10,10,10,10,5,,0.00,2,,136
2013-10-31,84,78,72,72,68,64,81,69,54,30.08,30.02,29.98,10,10,10,9,6,,0.00,1,,181